Location: B?lite?ti
(46.2833°N, 22.7333°E)
Time: 17:32:24
(UTC+00:00)

Cosmos 1626 Rocket - Pass Details

Date: 24 January 2021
Orbit: 603 x 631 km, 82.5° (Epoch: 28 February)

Event Time Altitude Azimuth Distance (km) Brightness Sun altitude
Rises 17:14:42 0° 201° (SSW) 2,873 7.4 -19.3°
Reaches altitude 10° 17:16:57 10° 207° (SSW) 1,978 6.6 -19.7°
Maximum altitude 17:21:13 50° 283° (WNW) 800 4.5 -20.4°
Drops below altitude 10° 17:25:33 10° 359° (N) 2,010 6.1 -21.2°
Sets 17:27:52 0° 5° (N) 2,925 6.9 -21.6°
